User: anonymous   Login
Location: Unspecified
(0.0000°N, 0.0000°E)
Time: 16:30:32
(UTC+00:00)
Language:

Akebono - Orbit

View from above orbital plane
View from above orbital plane
View from above satellite
View from above satellite

Ground track
Ground track

The orbit data is extracted from the following two-line orbital elements,

1 19822U 89016A   17204.65239076 +.00016494 -19207-7 +32901-3 0  9997
2 19822 075.0332 249.0129 1903411 129.9925 248.4468 11.69927142913514
Epoch (UTC): 23 July 2017 15:39:26
Eccentricity: 0.1903411
inclination: 75.0332°
perigee height: 258 km
apogee height: 3378 km
right ascension of ascending node: 249.0129°
argument of perigee: 129.9925°
revolutions per day: 11.69927142
mean anomaly at epoch: 248.4468°
orbit number at epoch: 91351

The dashed part of the orbit path shows where the satellite is in the earth's shadow,  

DLR